Regional Weather Roundup
Issued by NWS

Home | Current Version | Previous Version | Graphics & Text | Print | Product List | Glossary On
Versions: 1 2 3 4 5 6 7 8 9 10 11 12 13 14 15 16 17 18 19 20 21 22 23 24 25 26 27 28 29 30 31 32 33 34 35 36 37 38 39 40 41 42 43 44 45 46 47 48 49 50
000
ASUS43 KLOT 181721
RWRIL

ILLINOIS REGIONAL WEATHER ROUNDUP
NATIONAL WEATHER SERVICE CHICAGO/ROMEOVILLE IL
1200 PM CDT SAT APR 18 2015

NOTE: "FAIR" INDICATES FEW OR NO CLOUDS BELOW 12,000 FEET WITH NO
SIGNIFICANT WEATHER AND/OR OBSTRUCTIONS TO VISIBILITY.

* THESE STATIONS ARE NOT UNDER NWS QUALITY CONTROL. THEY ALSO MAY NOT
  REPORT WEATHER SUCH AS PRECIPITATION OR FOG.

ILZ001-002-007-009-015-016-024-181800-
NORTHWEST ILLINOIS

CITY           SKY/WX    TMP DP  RH WIND       PRES   REMARKS
MOLINE         CLOUDY    76  53  44 E10       29.99F
STERLING*      MOSUNNY   73  46  38 E23G30    30.03R
SAVANNA*       MOSUNNY   75  40  28 E18G25    30.03S
$$

ILZ003-004-008-010-011-017-018-181800-
NORTH CENTRAL ILLINOIS

CITY           SKY/WX    TMP DP  RH WIND       PRES   REMARKS
ROCKFORD       PTSUNNY   68  36  30 E16       30.09S
FREEPORT*      MOSUNNY   66  38  35 E16G23    30.09R
ROCHELLE*      FAIR      69  40  34 E17G24    30.06F
DE KALB*       MOSUNNY   66  37  33 E17       30.08F
PERU*          PTSUNNY   74  50  43 E16       30.03F
$$

ILZ005-006-012>014-019>023-181800-
NORTHEAST ILLINOIS

CITY           SKY/WX    TMP DP  RH WIND       PRES   REMARKS
CHICAGO-OHARE  PTSUNNY   57  38  48 NE15      30.09F
CHICAGO-MIDWAY PTSUNNY   60  40  47 N12       30.08F
AURORA         PTSUNNY   67  38  34 NE18      30.07S
LANSING*       PTSUNNY   52  40  62 N12       30.09R
JOLIET*        PTSUNNY   66  46  48 NE8       30.07S
WAUKEGAN       MOSUNNY   53  37  54 N18G24    30.11S
DUPAGE AIRPORT PTSUNNY   64  39  39 E16       30.08S
KANKAKEE*      PTSUNNY   74  54  49 NE10      30.05S
WHEELING       MOSUNNY   54  37  52 NE10G20   30.13R
MORRIS*        PTSUNNY   69  43  38 NE9       30.05R
ROMEOVILLE*    PTSUNNY   65  42  42 NE14      30.07S
NORTHERLY ISL    N/A     49  38  65 MISG        N/A
$$

LMZ740>746-181800-
SOUTHERN LAKE MICHIGAN

STATION/POSITION SKY/WX   TEMP    WIND        PRES    VSBY  WAVE
                          AIR SEA DIR/SP/G                  HT/PER
                          (F)     (DEG/KT/KT) (MB)    (MI)  (FT/S)
HARRISON CRIB              42     340/ 21/ 24   N/A
BURNHAM HARBOR             49     340/ 11/ 18   N/A
CALUMET HARBOR             48     330/ 15/ 19   N/A
BURNS HARBOR               45     330/  7/  8 1019.3R
MICHIGAN CITY              44     290/  7/  8   N/A
MICHIGAN CITY 6N           42 46                N/A           1
$$

ILZ025>027-034>036-040-047-049-050-058-095>099-181800-
WEST-CENTRAL ILLINOIS

CITY           SKY/WX    TMP DP  RH WIND       PRES   REMARKS
QUINCY         CLOUDY    76  55  48 SE13      29.99F
GALESBURG*     CLOUDY    76  55  48 SE7       30.01S
MACOMB*        CLOUDY    76  54  45 SE13      30.03S
JACKSONVILLE*  CLOUDY    79  58  49 SE8G17    30.01F HX  80
PITTSFIELD*    CLOUDY    77  54  45 SE14      30.01F
$$

ILZ028>032-037-038-041>044-048-051>054-059>061-181800-
CENTRAL ILLINOIS

CITY           SKY/WX    TMP DP  RH WIND       PRES   REMARKS
PONTIAC        CLOUDY    76  56  50 CALM      30.03F
BLOOMINGTON    CLOUDY    76  56  49 SE8       30.05S
DECATUR        PTSUNNY   75  50  41 E8        30.03S
PEORIA         PTSUNNY   76  57  51 VRB6      30.03R
LACON*         CLOUDY    74  55  50 CALM      30.01S
LINCOLN*       PTSUNNY   77  50  38 SE8       30.00F
SPRINGFIELD    PTSUNNY   78  56  46 SE10G17   30.02S
TAYLORVILLE    MOSUNNY   73  54  49 SE12      30.02F
$$

ILZ033-039-045-046-055>057-062-063-181800-
EAST-CENTRAL ILLINOIS

CITY           SKY/WX    TMP DP  RH WIND       PRES   REMARKS
CHAMPAIGN      CLOUDY    76  47  35 SE9       30.04S
DANVILLE*      CLOUDY    73  50  44 SE7       30.02F
RANTOUL*       CLOUDY    78  50  37 SE7       30.04F
MATTOON        LGT RAIN  75  48  38 SE9       30.03S
PARIS*         PTSUNNY   75  49  38 E7        30.05S
$$

ILZ079-100>102-181800-
SOUTHWEST ILLINOIS

CITY           SKY/WX    TMP DP  RH WIND       PRES   REMARKS
BELLEVILLE     CLOUDY    73  66  78 SE8       29.99F
CAHOKIA*       CLOUDY    73  63  70 SE6       30.00F
SPARTA*        CLOUDY    71  62  75 SE7       30.02F
$$

ILZ064>066-069>071-074>076-080>082-084>086-088>090-092>094-181800-
SOUTH-CENTRAL ILLINOIS

CITY           SKY/WX    TMP DP  RH WIND       PRES   REMARKS
CARBONDALE     CLOUDY    74  60  61 SE3       30.00F
CAIRO*         PTSUNNY   76  61  60 E7        30.00F
EFFINGHAM*     MOSUNNY   76  47  36 SE3       30.04S
MARION         MOSUNNY   75  63  64 E9        30.02S
MT. VERNON     CLOUDY    75  61  60 SE5       30.02F
CENTRALIA*     CLOUDY    74  57  54 SE7       30.03S
SALEM*         CLOUDY    76  56  50 SE7       30.03S
METROPOLIS*    PTSUNNY   76  61  58 SE7       30.00F
$$

ILZ067-068-072-073-078-083-087-091-181800-
SOUTHEAST ILLINOIS

CITY           SKY/WX    TMP DP  RH WIND       PRES   REMARKS
LAWRENCEVILLE  CLOUDY    76  56  49 VRB6      30.04R
FLORA*         CLOUDY    73  56  55 S7        30.04R
FAIRFIELD*     PTSUNNY   75  58  54 E5        30.02S
HARRISBURG*    MOSUNNY   75  59  57 SE7       30.03S
ROBINSON*      PTSUNNY   75  51  42 SE5       30.05S
CARMI*         PTSUNNY   75  55  49 SE9       30.01F
$$

ABBREVIATIONS USED IN REMARKS
   TC - TEMPERATURE IN CELSIUS
  WCI - WIND CHILL INDEX
   HX - HEAT INDEX
  VSB - VISIBILITY
$$




USA.gov is the U.S. government's official web portal to all federal, state and local government web resources and services.